Location: ????? ??????
(37.8317°N, 23.8750°E)
Time: 11:38:27
(UTC+00:00)

MOS 1 Rocket - Pass Details

Date: 20 January 2021
Orbit: 614 x 830 km, 97.4° (Epoch: 03 March)

Event Time Altitude Azimuth Distance (km) Brightness Sun altitude
Rises 17:03:13 0° 5° (N) 2,914 6.3 -17.4°
Reaches altitude 10° 17:05:28 10° 360° (N) 1,990 5.5 -17.8°
Maximum altitude 17:09:36 49° 286° (WNW) 801 4.0 -18.6°
Drops below altitude 10° 17:13:43 10° 212° (SSW) 1,974 6.2 -19.4°
Sets 17:15:56 0° 206° (SSW) 2,887 7.0 -19.8°
